Time,TemperatureF,DewpointF,PressureIn,WindDirection,WindDirectionDegrees,WindSpeedMPH,WindSpeedGustMPH,Humidity,HourlyPrecipIn,Conditions,Clouds,dailyrainin,SoftwareType,DateUTC
2013-01-13 00:03:00,62.3,59.0,29.92,South,171,3.0,5.0,90,0.00,,,0.00,weatherlink.com 1.10,2013-01-13 06:03:00,
2013-01-13 00:18:00,62.5,60.0,29.92,SW,215,4.0,9.0,90,0.00,,,0.00,weatherlink.com 1.10,2013-01-13 06:18:00,
2013-01-13 00:33:00,62.6,60.0,29.92,WSW,249,2.0,10.0,91,0.00,,,0.00,weatherlink.com 1.10,2013-01-13 06:33:00,
2013-01-13 00:48:00,62.7,60.0,29.91,SSE,155,0.0,8.0,91,0.00,,,0.00,weatherlink.com 1.10,2013-01-13 06:48:00,
2013-01-13 01:03:00,63.0,61.0,29.91,SE,130,7.0,8.0,92,0.00,,,0.00,weatherlink.com 1.10,2013-01-13 07:03:00,
2013-01-13 01:18:00,63.5,61.0,29.91,SSE,158,2.0,11.0,91,0.00,,,0.00,weatherlink.com 1.10,2013-01-13 07:18:00,
2013-01-13 01:33:00,63.8,62.0,29.91,SE,146,3.0,8.0,92,0.00,,,0.00,weatherlink.com 1.10,2013-01-13 07:33:00,
2013-01-13 01:48:00,64.0,61.0,29.91,ESE,109,1.0,8.0,91,0.00,,,0.00,weatherlink.com 1.10,2013-01-13 07:48:00,
2013-01-13 02:03:00,64.1,62.0,29.90,South,180,2.0,15.0,92,0.00,,,0.00,weatherlink.com 1.10,2013-01-13 08:03:00,
2013-01-13 02:18:00,64.3,62.0,29.91,SSE,150,5.0,11.0,92,0.00,,,0.00,weatherlink.com 1.10,2013-01-13 08:18:00,
2013-01-13 02:33:00,64.5,62.0,29.90,South,178,1.0,10.0,91,0.00,,,0.00,weatherlink.com 1.10,2013-01-13 08:33:00,
2013-01-13 02:49:00,64.6,62.0,29.90,South,173,4.0,7.0,92,0.00,,,0.00,weatherlink.com 1.10,2013-01-13 08:49:00,
2013-01-13 03:04:00,64.4,62.0,29.90,SE,129,1.0,10.0,93,0.00,,,0.00,weatherlink.com 1.10,2013-01-13 09:04:00,
2013-01-13 03:19:00,64.6,63.0,29.90,South,169,6.0,7.0,93,0.00,,,0.00,weatherlink.com 1.10,2013-01-13 09:19:00,
2013-01-13 03:34:00,64.8,63.0,29.88,South,182,5.0,8.0,92,0.00,,,0.00,weatherlink.com 1.10,2013-01-13 09:34:00,
2013-01-13 03:49:00,65.1,63.0,29.89,SSW,200,4.0,9.0,92,0.00,,,0.00,weatherlink.com 1.10,2013-01-13 09:49:00,
2013-01-13 04:04:00,65.4,63.0,29.89,South,188,3.0,8.0,92,0.00,,,0.00,weatherlink.com 1.10,2013-01-13 10:04:00,
2013-01-13 04:19:00,65.7,63.0,29.89,SE,142,0.0,12.0,91,0.00,,,0.00,weatherlink.com 1.10,2013-01-13 10:19:00,
2013-01-13 04:34:00,65.9,63.0,29.88,SSW,193,2.0,13.0,91,0.00,,,0.00,weatherlink.com 1.10,2013-01-13 10:34:00,
2013-01-13 04:49:00,65.8,63.0,29.89,SSW,194,6.0,11.0,91,0.00,,,0.00,weatherlink.com 1.10,2013-01-13 10:49:00,
2013-01-13 05:04:00,66.0,63.0,29.90,SSW,213,5.0,14.0,91,0.00,,,0.00,weatherlink.com 1.10,2013-01-13 11:04:00,
2013-01-13 05:19:00,66.1,64.0,29.90,SSE,150,4.0,12.0,91,0.00,,,0.00,weatherlink.com 1.10,2013-01-13 11:19:00,
2013-01-13 05:34:00,66.1,64.0,29.93,SSE,161,2.0,12.0,91,0.00,,,0.00,weatherlink.com 1.10,2013-01-13 11:34:00,
2013-01-13 05:49:00,66.0,63.0,29.94,West,267,4.0,9.0,91,0.00,,,0.00,weatherlink.com 1.10,2013-01-13 11:49:00,
2013-01-13 06:04:00,66.0,63.0,29.94,South,181,0.0,6.0,91,0.00,,,0.00,weatherlink.com 1.10,2013-01-13 12:04:00,
2013-01-13 06:19:00,66.0,63.0,29.94,ESE,119,2.0,8.0,90,0.00,,,0.00,weatherlink.com 1.10,2013-01-13 12:19:00,
2013-01-13 06:34:00,65.9,63.0,29.95,SE,139,0.0,5.0,90,0.00,,,0.00,weatherlink.com 1.10,2013-01-13 12:34:00,
2013-01-13 06:49:00,65.6,63.0,29.95,South,169,1.0,2.0,91,0.00,,,0.00,weatherlink.com 1.10,2013-01-13 12:49:00,
2013-01-13 07:04:00,65.1,63.0,29.95,SSE,151,0.0,3.0,93,0.00,,,0.00,weatherlink.com 1.10,2013-01-13 13:04:00,
2013-01-13 07:19:00,65.0,63.0,29.95,SE,146,1.0,2.0,93,0.00,,,0.00,weatherlink.com 1.10,2013-01-13 13:19:00,
2013-01-13 07:34:00,65.0,63.0,29.95,SE,138,1.0,4.0,93,0.00,,,0.00,weatherlink.com 1.10,2013-01-13 13:34:00,
2013-01-13 07:49:00,65.0,63.0,29.95,East,90,0.0,4.0,94,0.01,,,0.01,weatherlink.com 1.10,2013-01-13 13:49:00,
2013-01-13 08:04:00,65.1,63.0,29.95,ESE,102,0.0,1.0,94,0.01,,,0.01,weatherlink.com 1.10,2013-01-13 14:04:00,
2013-01-13 08:19:00,65.2,64.0,29.95,ESE,103,0.0,2.0,94,0.01,,,0.01,weatherlink.com 1.10,2013-01-13 14:19:00,
2013-01-13 08:34:00,65.3,64.0,29.95,ESE,117,3.0,3.0,94,0.01,,,0.01,weatherlink.com 1.10,2013-01-13 14:34:00,
2013-01-13 08:49:00,65.8,64.0,29.96,SSE,151,0.0,8.0,94,0.00,,,0.01,weatherlink.com 1.10,2013-01-13 14:49:00,
2013-01-13 09:04:00,66.1,64.0,29.96,ESE,115,1.0,7.0,94,0.00,,,0.01,weatherlink.com 1.10,2013-01-13 15:04:00,
2013-01-13 09:19:00,66.5,65.0,29.97,South,171,6.0,9.0,93,0.00,,,0.01,weatherlink.com 1.10,2013-01-13 15:19:00,
2013-01-13 09:34:00,67.1,65.0,29.97,SSW,196,2.0,9.0,92,0.00,,,0.01,weatherlink.com 1.10,2013-01-13 15:34:00,
2013-01-13 09:49:00,67.3,65.0,29.97,South,181,0.0,8.0,92,0.00,,,0.01,weatherlink.com 1.10,2013-01-13 15:49:00,
2013-01-13 10:04:00,67.7,65.0,29.97,SSE,163,3.0,11.0,91,0.00,,,0.01,weatherlink.com 1.10,2013-01-13 16:04:00,
2013-01-13 10:19:00,68.2,66.0,29.96,South,188,1.0,8.0,91,0.00,,,0.01,weatherlink.com 1.10,2013-01-13 16:19:00,
2013-01-13 10:34:00,68.7,66.0,29.95,ESE,115,0.0,8.0,90,0.00,,,0.01,weatherlink.com 1.10,2013-01-13 16:34:00,
2013-01-13 10:49:00,69.1,66.0,29.95,SE,136,3.0,9.0,90,0.00,,,0.01,weatherlink.com 1.10,2013-01-13 16:49:00,
2013-01-13 11:04:00,69.8,67.0,29.95,SE,125,0.0,8.0,89,0.00,,,0.01,weatherlink.com 1.10,2013-01-13 17:04:00,
2013-01-13 11:19:00,69.9,66.0,29.94,South,190,1.0,9.0,88,0.00,,,0.01,weatherlink.com 1.10,2013-01-13 17:19:00,
2013-01-13 11:34:00,70.0,66.0,29.93,ESE,118,1.0,9.0,87,0.00,,,0.01,weatherlink.com 1.10,2013-01-13 17:34:00,
2013-01-13 11:49:00,69.4,66.0,29.93,SSW,195,1.0,5.0,88,0.00,,,0.01,weatherlink.com 1.10,2013-01-13 17:49:00,
2013-01-13 12:05:00,68.3,66.0,29.93,South,177,2.0,6.0,91,0.01,,,0.02,weatherlink.com 1.10,2013-01-13 18:05:00,
2013-01-13 12:20:00,68.3,66.0,29.92,SE,146,5.0,6.0,91,0.01,,,0.02,weatherlink.com 1.10,2013-01-13 18:20:00,
2013-01-13 12:35:00,68.7,67.0,29.91,ESE,118,1.0,3.0,93,0.02,,,0.03,weatherlink.com 1.10,2013-01-13 18:35:00,
2013-01-13 12:50:00,69.9,67.0,29.90,SE,128,1.0,4.0,91,0.02,,,0.03,weatherlink.com 1.10,2013-01-13 18:50:00,
2013-01-13 13:05:00,70.3,67.0,29.89,SE,141,1.0,6.0,90,0.01,,,0.03,weatherlink.com 1.10,2013-01-13 19:05:00,
2013-01-13 13:20:00,70.5,67.0,29.89,SSE,164,0.0,7.0,88,0.01,,,0.03,weatherlink.com 1.10,2013-01-13 19:20:00,
2013-01-13 13:35:00,70.8,67.0,29.88,SE,138,0.0,7.0,86,0.00,,,0.03,weatherlink.com 1.10,2013-01-13 19:35:00,
2013-01-13 13:50:00,71.1,66.0,29.88,SE,138,0.0,9.0,85,0.00,,,0.03,weatherlink.com 1.10,2013-01-13 19:50:00,
2013-01-13 14:05:00,71.1,66.0,29.88,SSE,152,3.0,6.0,85,0.00,,,0.03,weatherlink.com 1.10,2013-01-13 20:05:00,
2013-01-13 14:20:00,71.7,66.0,29.87,SE,136,0.0,9.0,83,0.00,,,0.03,weatherlink.com 1.10,2013-01-13 20:20:00,
2013-01-13 14:35:00,71.5,67.0,29.87,East,97,2.0,7.0,84,0.00,,,0.03,weatherlink.com 1.10,2013-01-13 20:35:00,
2013-01-13 14:50:00,71.6,66.0,29.87,East,101,0.0,9.0,83,0.00,,,0.03,weatherlink.com 1.10,2013-01-13 20:50:00,
2013-01-13 15:05:00,70.3,66.0,29.87,NE,46,2.0,7.0,87,0.00,,,0.03,weatherlink.com 1.10,2013-01-13 21:05:00,
2013-01-13 15:20:00,70.1,66.0,29.88,SSE,168,4.0,8.0,87,0.00,,,0.03,weatherlink.com 1.10,2013-01-13 21:20:00,
2013-01-13 15:35:00,70.1,66.0,29.88,SSW,194,4.0,6.0,87,0.00,,,0.03,weatherlink.com 1.10,2013-01-13 21:35:00,
2013-01-13 15:50:00,69.5,66.0,29.88,SSE,165,0.0,4.0,89,0.01,,,0.04,weatherlink.com 1.10,2013-01-13 21:50:00,
2013-01-13 16:05:00,69.1,66.0,29.89,SSE,163,0.0,3.0,90,0.03,,,0.06,weatherlink.com 1.10,2013-01-13 22:05:00,
2013-01-13 16:20:00,68.7,66.0,29.88,ESE,113,0.0,5.0,91,0.07,,,0.10,weatherlink.com 1.10,2013-01-13 22:20:00,
2013-01-13 16:35:00,68.3,66.0,29.90,SSW,210,4.0,7.0,92,0.09,,,0.12,weatherlink.com 1.10,2013-01-13 22:35:00,
2013-01-13 16:50:00,68.2,66.0,29.90,SSE,159,4.0,11.0,92,0.12,,,0.17,weatherlink.com 1.10,2013-01-13 22:50:00,
2013-01-13 17:05:00,68.0,66.0,29.90,SSW,192,4.0,6.0,93,0.15,,,0.21,weatherlink.com 1.10,2013-01-13 23:05:00,
2013-01-13 17:20:00,67.9,66.0,29.90,South,186,2.0,11.0,93,0.20,,,0.30,weatherlink.com 1.10,2013-01-13 23:20:00,
2013-01-13 17:35:00,67.9,66.0,29.89,SE,128,2.0,15.0,93,0.20,,,0.32,weatherlink.com 1.10,2013-01-13 23:35:00,
2013-01-13 17:50:00,67.9,66.0,29.89,South,180,2.0,10.0,94,0.17,,,0.34,weatherlink.com 1.10,2013-01-13 23:50:00,
2013-01-13 18:05:00,67.9,66.0,29.93,West,279,12.0,12.0,94,0.16,,,0.37,weatherlink.com 1.10,2013-01-14 00:05:00,
2013-01-13 18:20:00,67.4,65.0,29.93,WSW,258,8.0,11.0,93,0.40,,,0.70,weatherlink.com 1.10,2013-01-14 00:20:00,
2013-01-13 18:35:00,66.8,65.0,29.94,WSW,258,5.0,9.0,93,0.68,,,1.00,weatherlink.com 1.10,2013-01-14 00:35:00,
2013-01-13 18:50:00,65.5,63.0,29.95,West,275,4.0,11.0,92,0.81,,,1.15,weatherlink.com 1.10,2013-01-14 00:50:00,
2013-01-13 19:05:00,64.5,63.0,29.96,WNW,300,4.0,14.0,93,0.88,,,1.26,weatherlink.com 1.10,2013-01-14 01:05:00,
2013-01-13 19:20:00,63.5,61.0,29.96,North,5,2.0,11.0,92,0.61,,,1.33,weatherlink.com 1.10,2013-01-14 01:20:00,
2013-01-13 19:35:00,61.8,59.0,29.98,NW,306,6.0,16.0,91,0.35,,,1.36,weatherlink.com 1.10,2013-01-14 01:35:00,
2013-01-13 19:50:00,60.2,58.0,29.99,NW,304,5.0,11.0,91,0.24,,,1.39,weatherlink.com 1.10,2013-01-14 01:50:00,
2013-01-13 20:06:00,59.1,57.0,29.99,WNW,296,2.0,7.0,91,0.14,,,1.40,weatherlink.com 1.10,2013-01-14 02:06:00,
2013-01-13 20:21:00,58.2,56.0,29.99,North,360,1.0,7.0,92,0.08,,,1.41,weatherlink.com 1.10,2013-01-14 02:21:00,
2013-01-13 20:36:00,57.6,55.0,29.98,NW,317,2.0,9.0,92,0.06,,,1.42,weatherlink.com 1.10,2013-01-14 02:36:00,
2013-01-13 20:51:00,57.1,55.0,29.99,North,360,4.0,6.0,93,0.04,,,1.43,weatherlink.com 1.10,2013-01-14 02:51:00,
2013-01-13 21:06:00,56.4,55.0,30.00,West,280,1.0,12.0,93,0.04,,,1.44,weatherlink.com 1.10,2013-01-14 03:06:00,
2013-01-13 21:21:00,56.0,54.0,30.00,ENE,72,3.0,5.0,93,0.05,,,1.46,weatherlink.com 1.10,2013-01-14 03:21:00,
2013-01-13 21:36:00,55.6,54.0,30.00,NW,307,1.0,7.0,93,0.04,,,1.46,weatherlink.com 1.10,2013-01-14 03:36:00,
2013-01-13 21:51:00,55.0,53.0,30.02,NW,321,0.0,11.0,93,0.04,,,1.47,weatherlink.com 1.10,2013-01-14 03:51:00,
2013-01-13 22:06:00,54.3,52.0,30.02,NNE,24,1.0,9.0,92,0.03,,,1.47,weatherlink.com 1.10,2013-01-14 04:06:00,
2013-01-13 22:21:00,53.2,51.0,30.04,WNW,293,10.0,10.0,92,0.03,,,1.49,weatherlink.com 1.10,2013-01-14 04:21:00,
2013-01-13 22:36:00,52.1,50.0,30.05,NW,304,4.0,9.0,92,0.04,,,1.50,weatherlink.com 1.10,2013-01-14 04:36:00,
2013-01-13 22:51:00,50.5,48.0,30.05,NW,309,3.0,9.0,91,0.04,,,1.51,weatherlink.com 1.10,2013-01-14 04:51:00,
2013-01-13 23:06:00,49.8,48.0,30.06,WNW,298,2.0,7.0,92,0.05,,,1.52,weatherlink.com 1.10,2013-01-14 05:06:00,
2013-01-13 23:21:00,49.3,47.0,30.07,North,360,3.0,9.0,92,0.03,,,1.52,weatherlink.com 1.10,2013-01-14 05:21:00,
2013-01-13 23:36:00,49.1,47.0,30.07,West,278,1.0,3.0,92,0.03,,,1.53,weatherlink.com 1.10,2013-01-14 05:36:00,
2013-01-13 23:51:00,48.4,46.0,30.06,North,9,0.0,9.0,92,0.02,,,1.53,weatherlink.com 1.10,2013-01-14 05:51:00,